Strona główna
METAR-TAF:

METAR-TAF

Lotnisko :

Winner, Dakota Południowa, Stany Zjednoczone

Szerokość geograficzna: 43-23-26N, Długość geograficzna: 099-50-33W, wysokość: 619 m

Aktualna obserwacja pogody

Raport powstał 47 minut temu, godzina 05:53 UTC
Wiatr 13 kt od zachód
Temperatura 2°C
Wilgotność 69%
Ciśnienie 1019 hPa
Widzialność: 16.1 km
bezchmurnie

METAR: KICR 280553Z AUTO 27013KT 10SM CLR 02/M03 A3008 RMK AO2 SLP202 T00171033 10050 20011 400671011 52000

czas: 00:40 (06:40 UTC)


TAF: brakujący

Obserwacja i prognoza pogody dla ponad 4000 lotnisk (raport METAR i TAF).

Dostępne stacje oznaczono żółtymi i czerwonymi punktami na mapie.

Najedź kursorem aby zobaczyć nazwę stacji.

Kliknij aby zobaczyć obserwacje i prognozy pogody.

Aby zmienić mapę: kliknij na zielony przycisk z czarnym krzyżykiem, aby powiększyć; na zielony przycisk z myślnikiem, aby pomniejszyć; na zielone strzałki, aby przejść do map sąsiednich.


METAR-TAF: